Retour au catalogue

EKRAN 5

LostCommunicationsGEO
NORAD 11890·PAYLOAD·🇷🇺 Russia

Lancé Jul 15, 1980 depuis Baikonur Cosmodrome

Loading…

TLE

FraisSource: Mike McCants

Époque: Sep 15, 2026, 14:21 UTC

1 11890U 80060A   26258.59839537  .00000000  00000-0  00000-0 0    08
2 11890   5.1903 283.1654 0010682 224.8488 135.0769  1.00148800 23009

Suivez EKRAN 5 en temps réel avec AllMySat

Download on the App Store